Regional Weather Roundup
Issued by NWS Jackson, KY

Home | Current Version | Previous Version | Text Only | Print | Product List | Glossary Off
Versions: 1 2 3 4 5 6 7 8 9 10 11 12 13 14 15 16 17 18 19 20 21 22 23 24 25 26 27 28 29 30 31 32 33 34 35 36 37 38 39 40 41 42 43 44 45 46 47 48 49 50

000
ASUS43 KJKL 191410
RWRJKL

EAST KENTUCKY HOURLY WEATHER ROUNDUP
NATIONAL WEATHER SERVICE JACKSON KY
900 AM EST THU JAN 19 2017

NOTE: "FAIR" INDICATES FEW OR NO CLOUDS BELOW 12,000 FEET WITH
NO SIGNIFICANT WEATHER AND/OR OBSTRUCTIONS TO VISIBILITY.

* THESE REPORTS ARE NOT UNDER NWS QUALITY CONTROL AND MAY NOT
  REPORT WEATHER SUCH AS PRECIPITATION AND FOG.

KYZ079-080-083-085-087-088-110-112-115-119-120-191500
...EASTERN KENTUCKY...

CITY           SKY/WX    TMP DP  RH WIND       PRES   REMARKS
JACKSON        MOSUNNY   38  35  89 E3        30.08R
LONDON         CLOUDY    41  37  86 E3        30.04F
SOMERSET*      CLOUDY    41  39  93 CALM      30.06R
MONTICELLO*    CLOUDY    45  41  86 N9        30.06S
WILLIAMSBURG*  CLOUDY    43  41  93 SE6       30.04F
MIDDLESBORO*   CLOUDY    40  40  99 CALM      30.09S
HARLAN APT*    CLOUDY    37  36  93 CALM      30.08F VSB 1/4
PIKE CO APT*     N/A     37  37 100 E5        30.09R WCI  33
BIG SANDY APT* MOSUNNY   37  37 100 CALM      30.09F
MOREHEAD APT*  CLOUDY    39  36  87 CALM      30.09S
ASHLAND*       CLOUDY    39  36  87 CALM      30.09S
$$

KYZ035-036-041-042-044-050-067-078-099-191500
...CENTRAL KENTUCKY...

CITY           SKY/WX    TMP DP  RH WIND       PRES   REMARKS
MT STERLING*   MOSUNNY   37  37 100 CALM      30.09R
FLEMING/MASON* CLOUDY    37  37  99 CALM      30.09S FOG
DANVILLE*      CLOUDY    39  37  93 E3        30.06S
LEXINGTON      CLOUDY    42  37  82 E7        30.05F
FRANKFORT      CLOUDY    40  36  86 E5        30.05F
LOUISVILLE     CLOUDY    43  37  79 E5        30.04F
LEBANON*       CLOUDY    41  39  93 NE3       30.05R
GLASGOW*       DRIZZLE   45  45 100 E3        30.02F
BOWLING GREEN  CLOUDY    47  43  86 E5        30.01F
$$

KYZ091>093-OHZ055-061-077-WVZ005-015-034-035-042-191500
...SOUTHERN OHIO/WEST VIRGINIA...

CITY           SKY/WX    TMP DP  RH WIND       PRES   REMARKS
COVINGTON      CLOUDY    38  37  97 SE6       30.07S FOG     WCI  33
COLUMBUS       CLOUDY    39  35  86 SE6       30.09R WCI  35
DAYTON         CLOUDY    37  35  92 SE3       30.07S FOG
WILMINGTON     CLOUDY    37  35  92 SE6       30.07S WCI  32
HUNTINGTON     CLOUDY    39  37  92 E5        30.09F
CHARLESTON     CLOUDY    43  38  82 CALM      30.11S
PINEVILLE*     FOG       36  34  93 MISG      30.15F VSB 1/4
BECKLEY        CLOUDY    37  36  96 CALM      30.10R FOG
BLUEFIELD      MOSUNNY   37  36  96 CALM      30.08F
LOGAN CO APT*  FOG       37  37 100 CALM      30.08F VSB 1/4
$$

VAZ002-007-008-TNZ017-027-036-066-071-191500
...SOUTHWEST VIRGINIA/EAST TENNESSEE...

CITY           SKY/WX    TMP DP  RH WIND       PRES   REMARKS
WISE*          CLOUDY    45  34  65 E3        30.08S
JONESVILLE*      N/A     39  39 100 CALM      30.11S
ABINGDON*      CLOUDY    42  41  96 E7        30.09S
BRISTOL        CLOUDY    39  37  92 CALM      30.09R
MORRISTOWN*    MOSUNNY   46  41  81 E3        30.06S
SEVIERVILLE*   SUNNY     43  39  87 CALM      30.07S
KNOXVILLE      CLOUDY    46  41  82 NE3       30.06R
LAFOLLETTE*    SUNNY     45  41  87 CALM      30.10S
OAK RIDGE      CLOUDY    46  41  82 VRB3      30.08S
CROSSVILLE     CLOUDY    47  44  90 CALM      30.04R FOG
NASHVILLE      CLOUDY    48  46  93 NE5       29.99F FOG
$$

...KEY TO REMARKS...
VSB - VISIBILITY IN MILES
WCI - WIND CHILL INDEX
HX  - HEAT INDEX

$$



USA.gov is the U.S. government's official web portal to all federal, state and local government web resources and services.